Time,TemperatureF,DewpointF,PressureIn,WindDirection,WindDirectionDegrees,WindSpeedMPH,WindSpeedGustMPH,Humidity,HourlyPrecipIn,Conditions,Clouds,dailyrainin,SoftwareType,DateUTC
2013-04-10 06:40:00,65.0,50.7,29.16,WNW,292,0.0,0.0,60,0.00,,,0.00,Weather View 32 v70,2013-04-10 10:40:00,
2013-04-10 06:42:00,64.0,49.8,29.16,WNW,292,0.0,0.0,60,0.00,,,0.00,Weather View 32 v70,2013-04-10 10:42:00,
2013-04-10 06:47:00,64.0,49.8,29.16,WNW,292,0.0,0.0,60,0.00,,,0.00,Weather View 32 v70,2013-04-10 10:47:00,
2013-04-10 06:52:00,64.0,49.8,29.16,WNW,292,0.0,0.0,60,0.00,,,0.00,Weather View 32 v70,2013-04-10 10:52:00,
2013-04-10 06:57:00,64.0,49.8,29.16,WNW,292,0.0,0.0,60,0.00,,,0.00,Weather View 32 v70,2013-04-10 10:57:00,
2013-04-10 07:02:00,63.0,48.9,29.16,WNW,292,0.0,0.0,60,0.00,,,0.00,Weather View 32 v70,2013-04-10 11:02:00,
2013-04-10 07:07:00,63.0,49.7,29.16,WNW,292,0.0,0.0,62,0.00,,,0.00,Weather View 32 v70,2013-04-10 11:07:00,
2013-04-10 07:12:00,62.0,49.7,29.16,WNW,292,0.0,0.0,64,0.00,,,0.00,Weather View 32 v70,2013-04-10 11:12:00,
2013-04-10 07:17:00,62.0,49.7,29.16,WNW,292,0.0,0.0,64,0.00,,,0.00,Weather View 32 v70,2013-04-10 11:17:00,
2013-04-10 07:22:00,63.0,51.0,29.16,WNW,292,0.0,0.0,65,0.00,,,0.00,Weather View 32 v70,2013-04-10 11:22:00,
2013-04-10 07:27:00,63.0,51.4,29.17,WNW,292,0.0,0.0,66,0.00,,,0.00,Weather View 32 v70,2013-04-10 11:27:00,
2013-04-10 07:32:00,64.0,51.5,29.17,WNW,292,0.0,0.0,64,0.00,,,0.00,Weather View 32 v70,2013-04-10 11:32:00,
2013-04-10 07:37:00,65.0,51.2,29.18,WNW,292,0.0,0.0,61,0.00,,,0.00,Weather View 32 v70,2013-04-10 11:37:00,
2013-04-10 07:42:00,67.0,52.2,29.18,WNW,292,0.0,0.0,59,0.00,,,0.00,Weather View 32 v70,2013-04-10 11:42:00,
2013-04-10 07:47:00,67.0,52.2,29.18,WNW,292,0.0,0.0,59,0.00,,,0.00,Weather View 32 v70,2013-04-10 11:47:00,
2013-04-10 07:52:00,68.0,53.6,29.18,WNW,292,0.0,0.0,60,0.00,,,0.00,Weather View 32 v70,2013-04-10 11:52:00,
2013-04-10 07:57:00,69.0,53.6,29.18,WSW,247,0.0,0.0,58,0.00,,,0.00,Weather View 32 v70,2013-04-10 11:57:00,
2013-04-10 08:02:00,69.0,51.1,29.18,WSW,247,0.0,4.0,53,0.00,,,0.00,Weather View 32 v70,2013-04-10 12:02:00,
2013-04-10 08:07:00,70.0,51.5,29.18,WSW,247,2.0,4.0,52,0.00,,,0.00,Weather View 32 v70,2013-04-10 12:07:00,
2013-04-10 08:12:00,71.0,52.4,29.18,WSW,247,0.0,4.0,52,0.00,,,0.00,Weather View 32 v70,2013-04-10 12:12:00,
2013-04-10 08:17:00,71.0,51.4,29.18,West,270,0.0,5.0,50,0.00,,,0.00,Weather View 32 v70,2013-04-10 12:17:00,
2013-04-10 08:22:00,71.0,50.3,29.18,West,270,1.0,5.0,48,0.00,,,0.00,Weather View 32 v70,2013-04-10 12:22:00,
2013-04-10 08:27:00,72.0,52.3,29.18,West,270,0.0,5.0,50,0.00,,,0.00,Weather View 32 v70,2013-04-10 12:27:00,
2013-04-10 08:32:00,72.0,51.7,29.18,West,270,0.0,5.0,49,0.00,,,0.00,Weather View 32 v70,2013-04-10 12:32:00,
2013-04-10 08:37:00,73.0,50.9,29.18,WSW,247,0.0,5.0,46,0.00,,,0.00,Weather View 32 v70,2013-04-10 12:37:00,
2013-04-10 08:42:00,74.0,51.8,29.19,West,270,0.0,5.0,46,0.00,,,0.00,Weather View 32 v70,2013-04-10 12:42:00,
2013-04-10 08:47:00,74.0,50.6,29.19,West,270,0.0,5.0,44,0.00,,,0.00,Weather View 32 v70,2013-04-10 12:47:00,
2013-04-10 08:52:00,74.0,50.0,29.18,SW,225,0.0,5.0,43,0.00,,,0.00,Weather View 32 v70,2013-04-10 12:52:00,
2013-04-10 08:57:00,75.0,50.3,29.18,West,270,0.0,6.0,42,0.00,,,0.00,Weather View 32 v70,2013-04-10 12:57:00,
2013-04-10 09:02:00,75.0,50.9,29.19,WSW,247,0.0,6.0,43,0.00,,,0.00,Weather View 32 v70,2013-04-10 13:02:00,
2013-04-10 09:07:00,75.0,50.9,29.18,West,270,0.0,6.0,43,0.00,,,0.00,Weather View 32 v70,2013-04-10 13:07:00,
2013-04-10 09:12:00,76.0,50.5,29.19,West,270,0.0,6.0,41,0.00,,,0.00,Weather View 32 v70,2013-04-10 13:12:00,
2013-04-10 09:17:00,76.0,49.9,29.19,West,270,0.0,6.0,40,0.00,,,0.00,Weather View 32 v70,2013-04-10 13:17:00,
2013-04-10 09:22:00,77.0,51.4,29.19,WNW,292,0.0,6.0,41,0.00,,,0.00,Weather View 32 v70,2013-04-10 13:22:00,
2013-04-10 09:27:00,77.0,50.1,29.19,WSW,247,0.0,6.0,39,0.00,,,0.00,Weather View 32 v70,2013-04-10 13:27:00,
2013-04-10 09:32:00,78.0,49.5,29.19,West,270,0.0,6.0,37,0.00,,,0.00,Weather View 32 v70,2013-04-10 13:32:00,
2013-04-10 09:37:00,78.0,49.5,29.19,West,270,0.0,6.0,37,0.00,,,0.00,Weather View 32 v70,2013-04-10 13:37:00,
2013-04-10 09:42:00,78.0,50.3,29.19,West,270,0.0,6.0,38,0.00,,,0.00,Weather View 32 v70,2013-04-10 13:42:00,
2013-04-10 09:47:00,79.0,48.1,29.19,West,270,0.0,6.0,34,0.00,,,0.00,Weather View 32 v70,2013-04-10 13:47:00,
2013-04-10 09:52:00,79.0,48.9,29.19,West,270,0.0,6.0,35,0.00,,,0.00,Weather View 32 v70,2013-04-10 13:52:00,
2013-04-10 09:57:00,79.0,49.7,29.18,WSW,247,0.0,6.0,36,0.00,,,0.00,Weather View 32 v70,2013-04-10 13:57:00,
2013-04-10 10:02:00,79.0,48.9,29.19,West,270,0.0,5.0,35,0.00,,,0.00,Weather View 32 v70,2013-04-10 14:02:00,
2013-04-10 10:07:00,80.0,50.6,29.19,WNW,292,0.0,5.0,36,0.00,,,0.00,Weather View 32 v70,2013-04-10 14:07:00,
2013-04-10 10:12:00,79.0,48.1,29.18,WNW,292,0.0,7.0,34,0.00,,,0.00,Weather View 32 v70,2013-04-10 14:12:00,
2013-04-10 10:17:00,80.0,49.8,29.18,West,270,0.0,7.0,35,0.00,,,0.00,Weather View 32 v70,2013-04-10 14:17:00,
2013-04-10 10:22:00,80.0,49.8,29.18,WNW,292,0.0,7.0,35,0.00,,,0.00,Weather View 32 v70,2013-04-10 14:22:00,
2013-04-10 10:27:00,80.0,49.8,29.18,NW,315,0.0,7.0,35,0.00,,,0.00,Weather View 32 v70,2013-04-10 14:27:00,
2013-04-10 10:32:00,80.0,49.8,29.19,NW,315,0.0,7.0,35,0.00,,,0.00,Weather View 32 v70,2013-04-10 14:32:00,
2013-04-10 10:37:00,80.0,49.8,29.18,West,270,0.0,7.0,35,0.00,,,0.00,Weather View 32 v70,2013-04-10 14:37:00,
2013-04-10 10:42:00,81.0,50.7,29.18,NW,315,3.0,9.0,35,0.00,,,0.00,Weather View 32 v70,2013-04-10 14:42:00,
2013-04-10 10:47:00,81.0,50.7,29.18,WNW,292,0.0,9.0,35,0.00,,,0.00,Weather View 32 v70,2013-04-10 14:47:00,
2013-04-10 10:52:00,81.0,50.7,29.18,WNW,292,0.0,13.0,35,0.00,,,0.00,Weather View 32 v70,2013-04-10 14:52:00,
2013-04-10 10:57:00,81.0,49.9,29.18,WNW,292,0.0,13.0,34,0.00,,,0.00,Weather View 32 v70,2013-04-10 14:57:00,
2013-04-10 11:02:00,82.0,50.8,29.18,West,270,0.0,13.0,34,0.00,,,0.00,Weather View 32 v70,2013-04-10 15:02:00,
2013-04-10 11:07:00,82.0,51.6,29.18,West,270,0.0,13.0,35,0.00,,,0.00,Weather View 32 v70,2013-04-10 15:07:00,
2013-04-10 11:12:00,82.0,51.6,29.18,WSW,247,0.0,13.0,35,0.00,,,0.00,Weather View 32 v70,2013-04-10 15:12:00,
2013-04-10 11:17:00,82.0,50.0,29.18,NW,315,0.0,13.0,33,0.00,,,0.00,Weather View 32 v70,2013-04-10 15:17:00,
2013-04-10 11:22:00,82.0,51.6,29.18,NW,315,0.0,13.0,35,0.00,,,0.00,Weather View 32 v70,2013-04-10 15:22:00,
2013-04-10 11:27:00,82.0,51.6,29.18,West,270,0.0,13.0,35,0.00,,,0.00,Weather View 32 v70,2013-04-10 15:27:00,
2013-04-10 11:32:00,82.0,51.6,29.18,SW,225,0.0,13.0,35,0.00,,,0.00,Weather View 32 v70,2013-04-10 15:32:00,
2013-04-10 11:37:00,82.0,50.8,29.18,WSW,247,0.0,13.0,34,0.00,,,0.00,Weather View 32 v70,2013-04-10 15:37:00,
2013-04-10 11:42:00,83.0,51.6,29.18,West,270,0.0,13.0,34,0.00,,,0.00,Weather View 32 v70,2013-04-10 15:42:00,
2013-04-10 11:47:00,84.0,53.3,29.18,West,270,0.0,13.0,35,0.00,,,0.00,Weather View 32 v70,2013-04-10 15:47:00,
2013-04-10 11:52:00,84.0,52.5,29.18,WNW,292,0.0,0.0,34,0.00,,,0.00,Weather View 32 v70,2013-04-10 15:52:00,
2013-04-10 11:57:00,84.0,51.7,29.18,WSW,247,0.0,0.0,33,0.00,,,0.00,Weather View 32 v70,2013-04-10 15:57:00,
2013-04-10 12:02:00,84.0,51.7,29.18,NNW,337,0.0,0.0,33,0.00,,,0.00,Weather View 32 v70,2013-04-10 16:02:00,
2013-04-10 12:07:00,84.0,51.7,29.18,NW,315,0.0,0.0,33,0.00,,,0.00,Weather View 32 v70,2013-04-10 16:07:00,
2013-04-10 12:12:00,85.0,51.7,29.18,West,270,0.0,0.0,32,0.00,,,0.00,Weather View 32 v70,2013-04-10 16:12:00,
2013-04-10 12:17:00,85.0,51.7,29.18,NW,315,0.0,0.0,32,0.00,,,0.00,Weather View 32 v70,2013-04-10 16:17:00,
2013-04-10 12:22:00,85.0,51.7,29.18,WNW,292,0.0,0.0,32,0.00,,,0.00,Weather View 32 v70,2013-04-10 16:22:00,
2013-04-10 12:27:00,85.0,51.7,29.18,WNW,292,0.0,0.0,32,0.00,,,0.00,Weather View 32 v70,2013-04-10 16:27:00,
2013-04-10 12:32:00,86.0,52.6,29.18,NW,315,0.0,0.0,32,0.00,,,0.00,Weather View 32 v70,2013-04-10 16:32:00,
2013-04-10 12:37:00,86.0,51.7,29.17,WSW,247,0.0,0.0,31,0.00,,,0.00,Weather View 32 v70,2013-04-10 16:37:00,
2013-04-10 12:42:00,86.0,51.7,29.17,West,270,0.0,0.0,31,0.00,,,0.00,Weather View 32 v70,2013-04-10 16:42:00,
2013-04-10 12:47:00,86.0,51.7,29.17,WSW,247,0.0,0.0,31,0.00,,,0.00,Weather View 32 v70,2013-04-10 16:47:00,
2013-04-10 12:52:00,86.0,51.7,29.17,NW,315,0.0,0.0,31,0.00,,,0.00,Weather View 32 v70,2013-04-10 16:52:00,
2013-04-10 12:57:00,86.0,51.7,29.17,NW,315,0.0,0.0,31,0.00,,,0.00,Weather View 32 v70,2013-04-10 16:57:00,
2013-04-10 13:02:00,86.0,50.9,29.17,WNW,292,0.0,0.0,30,0.00,,,0.00,Weather View 32 v70,2013-04-10 17:02:00,
2013-04-10 13:07:00,86.0,50.9,29.17,WSW,247,0.0,0.0,30,0.00,,,0.00,Weather View 32 v70,2013-04-10 17:07:00,
2013-04-10 13:12:00,86.0,51.7,29.17,NW,315,0.0,0.0,31,0.00,,,0.00,Weather View 32 v70,2013-04-10 17:12:00,
2013-04-10 13:18:00,87.0,52.6,29.16,WNW,292,0.0,0.0,31,0.00,,,0.00,Weather View 32 v70,2013-04-10 17:18:00,
2013-04-10 13:23:00,86.0,50.9,29.16,WSW,247,0.0,0.0,30,0.00,,,0.00,Weather View 32 v70,2013-04-10 17:23:00,
2013-04-10 13:28:00,87.0,52.6,29.16,WSW,247,0.0,0.0,31,0.00,,,0.00,Weather View 32 v70,2013-04-10 17:28:00,
2013-04-10 13:33:00,88.0,51.6,29.16,SSW,202,0.0,0.0,29,0.00,,,0.00,Weather View 32 v70,2013-04-10 17:33:00,
2013-04-10 13:38:00,87.0,50.8,29.16,West,270,0.0,0.0,29,0.00,,,0.00,Weather View 32 v70,2013-04-10 17:38:00,
2013-04-10 13:43:00,87.0,50.8,29.16,SE,135,0.0,0.0,29,0.00,,,0.00,Weather View 32 v70,2013-04-10 17:43:00,
2013-04-10 13:48:00,88.0,51.6,29.16,WSW,247,0.0,0.0,29,0.00,,,0.00,Weather View 32 v70,2013-04-10 17:48:00,
2013-04-10 13:53:00,88.0,50.7,29.16,NW,315,0.0,0.0,28,0.00,,,0.00,Weather View 32 v70,2013-04-10 17:53:00,
2013-04-10 13:58:00,87.0,50.8,29.16,West,270,0.0,0.0,29,0.00,,,0.00,Weather View 32 v70,2013-04-10 17:58:00,
2013-04-10 14:03:00,88.0,52.6,29.16,NW,315,0.0,0.0,30,0.00,,,0.00,Weather View 32 v70,2013-04-10 18:03:00,
2013-04-10 14:08:00,88.0,51.6,29.15,West,270,0.0,0.0,29,0.00,,,0.00,Weather View 32 v70,2013-04-10 18:08:00,
2013-04-10 14:13:00,88.0,50.7,29.15,West,270,0.0,0.0,28,0.00,,,0.00,Weather View 32 v70,2013-04-10 18:13:00,
2013-04-10 14:18:00,89.0,50.6,29.15,WNW,292,0.0,0.0,27,0.00,,,0.00,Weather View 32 v70,2013-04-10 18:18:00,
2013-04-10 14:23:00,89.0,50.6,29.15,WSW,247,0.0,0.0,27,0.00,,,0.00,Weather View 32 v70,2013-04-10 18:23:00,
2013-04-10 14:28:00,88.0,49.7,29.15,WSW,247,0.0,0.0,27,0.00,,,0.00,Weather View 32 v70,2013-04-10 18:28:00,
2013-04-10 14:33:00,88.0,51.6,29.15,West,270,0.0,0.0,29,0.00,,,0.00,Weather View 32 v70,2013-04-10 18:33:00,
2013-04-10 14:38:00,89.0,50.6,29.14,SSW,202,0.0,0.0,27,0.00,,,0.00,Weather View 32 v70,2013-04-10 18:38:00,
2013-04-10 14:43:00,90.0,52.4,29.14,WSW,247,0.0,0.0,28,0.00,,,0.00,Weather View 32 v70,2013-04-10 18:43:00,
2013-04-10 14:48:00,90.0,50.4,29.15,West,270,0.0,0.0,26,0.00,,,0.00,Weather View 32 v70,2013-04-10 18:48:00,
2013-04-10 14:53:00,90.0,50.4,29.14,WSW,247,0.0,0.0,26,0.00,,,0.00,Weather View 32 v70,2013-04-10 18:53:00,
2013-04-10 14:58:00,90.0,51.4,29.14,WSW,247,0.0,0.0,27,0.00,,,0.00,Weather View 32 v70,2013-04-10 18:58:00,
2013-04-10 15:03:00,90.0,50.4,29.20,SW,225,0.0,0.0,26,0.00,,,0.00,Weather View 32 v70,2013-04-10 19:03:00,
2013-04-10 15:08:00,90.0,50.4,29.14,West,270,0.0,0.0,26,0.00,,,0.00,Weather View 32 v70,2013-04-10 19:08:00,
2013-04-10 15:13:00,90.0,50.4,29.16,West,270,0.0,0.0,26,0.00,,,0.00,Weather View 32 v70,2013-04-10 19:13:00,
2013-04-10 15:18:00,90.0,50.4,29.14,West,270,0.0,0.0,26,0.00,,,0.00,Weather View 32 v70,2013-04-10 19:18:00,
2013-04-10 15:23:00,90.0,51.4,29.13,WSW,247,0.0,0.0,27,0.00,,,0.00,Weather View 32 v70,2013-04-10 19:23:00,
2013-04-10 15:28:00,91.0,51.2,29.13,West,270,0.0,0.0,26,0.00,,,0.00,Weather View 32 v70,2013-04-10 19:28:00,
2013-04-10 15:33:00,91.0,50.2,29.13,SW,225,0.0,0.0,25,0.00,,,0.00,Weather View 32 v70,2013-04-10 19:33:00,
2013-04-10 15:38:00,91.0,49.1,29.13,WSW,247,0.0,0.0,24,0.00,,,0.00,Weather View 32 v70,2013-04-10 19:38:00,
2013-04-10 15:43:00,91.0,49.1,29.13,WNW,292,0.0,0.0,24,0.00,,,0.00,Weather View 32 v70,2013-04-10 19:43:00,
2013-04-10 15:48:00,91.0,50.2,29.12,WSW,247,0.0,0.0,25,0.00,,,0.00,Weather View 32 v70,2013-04-10 19:48:00,
2013-04-10 15:53:00,90.0,48.2,29.12,WSW,247,0.0,0.0,24,0.00,,,0.00,Weather View 32 v70,2013-04-10 19:53:00,
2013-04-10 15:58:00,91.0,49.1,29.12,South,180,0.0,0.0,24,0.00,,,0.00,Weather View 32 v70,2013-04-10 19:58:00,
2013-04-10 16:03:00,91.0,50.2,29.12,SSE,157,0.0,0.0,25,0.00,,,0.00,Weather View 32 v70,2013-04-10 20:03:00,
2013-04-10 16:08:00,91.0,49.1,29.11,West,270,0.0,0.0,24,0.00,,,0.00,Weather View 32 v70,2013-04-10 20:08:00,
2013-04-10 16:13:00,92.0,49.9,29.11,South,180,0.0,0.0,24,0.00,,,0.00,Weather View 32 v70,2013-04-10 20:13:00,
2013-04-10 16:18:00,91.0,49.1,29.11,SSE,157,0.0,0.0,24,0.00,,,0.00,Weather View 32 v70,2013-04-10 20:18:00,
2013-04-10 16:23:00,91.0,49.1,29.17,West,270,0.0,0.0,24,0.00,,,0.00,Weather View 32 v70,2013-04-10 20:23:00,
2013-04-10 16:28:00,91.0,49.1,29.11,WSW,247,0.0,0.0,24,0.00,,,0.00,Weather View 32 v70,2013-04-10 20:28:00,
2013-04-10 16:33:00,90.0,48.2,29.11,WSW,247,0.0,0.0,24,0.00,,,0.00,Weather View 32 v70,2013-04-10 20:33:00,
2013-04-10 16:38:00,90.0,48.2,29.11,West,270,0.0,0.0,24,0.00,,,0.00,Weather View 32 v70,2013-04-10 20:38:00,
2013-04-10 16:43:00,90.0,48.2,29.10,WNW,292,0.0,0.0,24,0.00,,,0.00,Weather View 32 v70,2013-04-10 20:43:00,
2013-04-10 16:48:00,91.0,49.1,29.10,WSW,247,0.0,0.0,24,0.00,,,0.00,Weather View 32 v70,2013-04-10 20:48:00,
2013-04-10 16:53:00,90.0,48.2,29.10,West,270,0.0,0.0,24,0.00,,,0.00,Weather View 32 v70,2013-04-10 20:53:00,
2013-04-10 17:00:00,90.0,48.2,29.10,WSW,247,0.0,0.0,24,0.00,,,0.00,Weather View 32 v70,2013-04-10 21:00:00,
2013-04-10 17:05:00,89.0,47.4,29.10,WSW,247,0.0,0.0,24,0.00,,,0.00,Weather View 32 v70,2013-04-10 21:05:00,
2013-04-10 17:10:00,89.0,47.4,29.10,West,270,0.0,0.0,24,0.00,,,0.00,Weather View 32 v70,2013-04-10 21:10:00,
2013-04-10 17:15:00,89.0,47.4,29.10,West,270,0.0,0.0,24,0.00,,,0.00,Weather View 32 v70,2013-04-10 21:15:00,
2013-04-10 17:20:00,89.0,47.4,29.10,WSW,247,0.0,0.0,24,0.00,,,0.00,Weather View 32 v70,2013-04-10 21:20:00,
2013-04-10 17:25:00,89.0,48.5,29.09,South,180,0.0,0.0,25,0.00,,,0.00,Weather View 32 v70,2013-04-10 21:25:00,
2013-04-10 17:30:00,89.0,48.5,29.09,West,270,0.0,0.0,25,0.00,,,0.00,Weather View 32 v70,2013-04-10 21:30:00,
2013-04-10 17:35:00,89.0,48.5,29.09,WSW,247,0.0,0.0,25,0.00,,,0.00,Weather View 32 v70,2013-04-10 21:35:00,
2013-04-10 17:40:00,89.0,48.5,29.09,NW,315,0.0,0.0,25,0.00,,,0.00,Weather View 32 v70,2013-04-10 21:40:00,
2013-04-10 17:45:00,89.0,49.5,29.09,West,270,0.0,0.0,26,0.00,,,0.00,Weather View 32 v70,2013-04-10 21:45:00,
2013-04-10 17:50:00,89.0,49.5,29.09,SW,225,0.0,0.0,26,0.00,,,0.00,Weather View 32 v70,2013-04-10 21:50:00,
2013-04-10 17:55:00,88.0,48.7,29.08,WSW,247,0.0,0.0,26,0.00,,,0.00,Weather View 32 v70,2013-04-10 21:55:00,
2013-04-10 18:00:00,88.0,49.7,29.08,South,180,0.0,0.0,27,0.00,,,0.00,Weather View 32 v70,2013-04-10 22:00:00,
2013-04-10 18:05:00,88.0,49.7,29.08,West,270,0.0,0.0,27,0.00,,,0.00,Weather View 32 v70,2013-04-10 22:05:00,
2013-04-10 18:10:00,88.0,49.7,29.08,WNW,292,0.0,0.0,27,0.00,,,0.00,Weather View 32 v70,2013-04-10 22:10:00,
2013-04-10 18:15:00,87.0,48.9,29.08,South,180,0.0,0.0,27,0.00,,,0.00,Weather View 32 v70,2013-04-10 22:15:00,
2013-04-10 18:20:00,87.0,48.9,29.12,WSW,247,0.0,0.0,27,0.00,,,0.00,Weather View 32 v70,2013-04-10 22:20:00,
2013-04-10 18:25:00,86.0,48.0,29.07,South,180,0.0,0.0,27,0.00,,,0.00,Weather View 32 v70,2013-04-10 22:25:00,
2013-04-10 18:30:00,86.0,49.0,29.07,SE,135,0.0,4.0,28,0.00,,,0.00,Weather View 32 v70,2013-04-10 22:30:00,
2013-04-10 18:35:00,86.0,49.0,29.06,SW,225,0.0,4.0,28,0.00,,,0.00,Weather View 32 v70,2013-04-10 22:35:00,
2013-04-10 18:40:00,86.0,49.0,29.06,South,180,0.0,4.0,28,0.00,,,0.00,Weather View 32 v70,2013-04-10 22:40:00,
2013-04-10 18:45:00,86.0,49.9,29.06,SW,225,0.0,4.0,29,0.00,,,0.00,Weather View 32 v70,2013-04-10 22:45:00,
2013-04-10 18:50:00,86.0,49.9,29.06,SSW,202,0.0,4.0,29,0.00,,,0.00,Weather View 32 v70,2013-04-10 22:50:00,
2013-04-10 18:55:00,85.0,49.1,29.06,NW,315,0.0,4.0,29,0.00,,,0.00,Weather View 32 v70,2013-04-10 22:55:00,
2013-04-10 19:00:00,85.0,49.1,29.06,South,180,0.0,4.0,29,0.00,,,0.00,Weather View 32 v70,2013-04-10 23:00:00,
2013-04-10 19:05:00,85.0,48.1,29.06,South,180,0.0,4.0,28,0.00,,,0.00,Weather View 32 v70,2013-04-10 23:05:00,
2013-04-10 19:10:00,85.0,49.1,29.06,South,180,0.0,4.0,29,0.00,,,0.00,Weather View 32 v70,2013-04-10 23:10:00,